Regional Weather Roundup
Issued by NWS Jackson, KY

Home | Current Version | Previous Version | Graphics & Text | Print | Product List | Glossary On
Versions: 1 2 3 4 5 6 7 8 9 10 11 12 13 14 15 16 17 18 19 20 21 22 23 24 25 26 27
000
ASUS43 KJKL 300910
RWRJKL

EAST KENTUCKY HOURLY WEATHER ROUNDUP
NATIONAL WEATHER SERVICE JACKSON KY
500 AM EDT TUE MAY 30 2017

NOTE: "FAIR" INDICATES FEW OR NO CLOUDS BELOW 12,000 FEET WITH
NO SIGNIFICANT WEATHER AND/OR OBSTRUCTIONS TO VISIBILITY.

* THESE REPORTS ARE NOT UNDER NWS QUALITY CONTROL AND MAY NOT
  REPORT WEATHER SUCH AS PRECIPITATION AND FOG.

KYZ079-080-083-085-087-088-110-112-115-119-120-301000
...EASTERN KENTUCKY...

CITY           SKY/WX    TMP DP  RH WIND       PRES   REMARKS
JACKSON        PTCLDY    63  60  90 CALM      30.04S
LONDON         CLOUDY    62  59  90 CALM      30.06R
SOMERSET*      CLOUDY    59  59 100 CALM      30.06S FOG
MONTICELLO*    CLOUDY    65  63  93 VRB7G18   30.07R
WILLIAMSBURG*  CLOUDY    61  61 100 SE3       30.06R
MIDDLESBORO*   MOCLDY    60  60 100 CALM      30.08R FOG
HARLAN APT*    CLOUDY    61  59  94 CALM      30.08R VSB 1/4
PIKE CO APT*     N/A     63  63 100 CALM      30.04S
BIG SANDY APT* CLOUDY    64  62  93 CALM      30.04R
MOREHEAD APT*  MOSUNNY   66  59  77 SW9G15    30.02S
$$

KYZ035-036-041-042-044-050-067-078-099-301000
...CENTRAL KENTUCKY...

CITY           SKY/WX    TMP DP  RH WIND       PRES   REMARKS
MT STERLING*   PTCLDY    64  61  88 W6        30.03R
FLEMING/MASON* CLOUDY    64  60  88 SW9       30.00S
DANVILLE*      MOCLDY    64  61  88 CALM      30.04R
LEXINGTON      CLOUDY    65  60  84 SW7       30.02R
FRANKFORT      CLEAR     64  58  80 SW6       30.00R
LOUISVILLE     PTCLDY    67  55  65 W10       30.01R
LEBANON*         N/A     64  61  88 CALM      30.03R
GLASGOW*       PTCLDY    63  57  82 SW3       30.04S
BOWLING GREEN  LGT RAIN  67  60  78 SW5       30.04F
$$

KYZ091>093-OHZ055-061-077-WVZ005-015-034-035-042-301000
...SOUTHERN OHIO/WEST VIRGINIA...

CITY           SKY/WX    TMP DP  RH WIND       PRES   REMARKS
COVINGTON      PTCLDY    62  56  80 W7        29.98R
COLUMBUS       PTCLDY    62  56  80 CALM      29.94S
DAYTON         MOCLDY    57  54  89 W6        29.97R
WILMINGTON     CLEAR     59  58  96 W3        29.96R
HUNTINGTON     CLOUDY    63  59  87 S3        29.99S
CHARLESTON     PTCLDY    61  58  90 CALM      30.00S
PINEVILLE*     CLOUDY    58  57  97 MISG      30.11S
BECKLEY        CLOUDY    61  57  87 S5        30.08S
BLUEFIELD      PTCLDY    59  56  89 SW5       30.10S
LOGAN CO APT*    N/A     61  59  94 CALM      30.04R
$$

VAZ002-007-008-TNZ017-027-036-066-071-301000
...SOUTHWEST VIRGINIA/EAST TENNESSEE...

CITY           SKY/WX    TMP DP  RH WIND       PRES   REMARKS
WISE*          CLOUDY    61  61 100 CALM      30.11S
JONESVILLE*      N/A     63  63 100 CALM      30.09S FOG
ABINGDON*      CLOUDY    63  63 100 CALM      30.09S FOG
BRISTOL        CLOUDY    63  62  97 CALM      30.08R FOG
MORRISTOWN*    CLOUDY    66  64  94 W8        30.06S
SEVIERVILLE*   MOSUNNY   63  63 100 CALM      30.06F
KNOXVILLE      MOCLDY    65  63  93 SW6       30.06S
LAFOLLETTE*    FOG       63  63 100 CALM      30.09S VSB 0
OAK RIDGE      CLOUDY    68  64  87 S3        30.08R
CROSSVILLE     FOG       59  59 100 CALM      30.10S VSB 1/2
NASHVILLE      PTCLDY    65  64  97 S6        30.07R
$$

...KEY TO REMARKS...
VSB - VISIBILITY IN MILES
WCI - WIND CHILL INDEX
HX  - HEAT INDEX

$$




USA.gov is the U.S. government's official web portal to all federal, state and local government web resources and services.